When you browse on this site, cookies collect data to enhance your experience and personalize the content and advertising you see.
Visit our Privacy Policy to learn more. By continuing to use the site, you agree to this use of cookies and data.
  • In Lithuania
  • List of Countries
  • For 7 days
  • Water Temperature
  • Satellite Maps
  • Weather Map
  • Weather Widgets
  • user-avatar
    Login

    Hourly Weather Red Deer

    Today, 22 July, Monday

    Time Temperature Precipitation Wind Pressure Humidity
    00:00 +13°C° 0 mm 5 mps 686 mmHg 76%
    01:00 +13°C° 0 mm 5 mps 686 mmHg 74%
    02:00 +13°C° 0 mm 5 mps 686 mmHg 74%
    03:00 +12°C° 0 mm 5 mps 686 mmHg 75%
    04:00 +11°C° 0 mm 4 mps 686 mmHg 80%
    05:00 +13°C° 0 mm 4 mps 686 mmHg 80%
    06:00 +14°C° 0 mm 4 mps 687 mmHg 80%
    07:00 +15°C° 0 mm 5 mps 687 mmHg 79%
    08:00 +16°C° 0 mm 5 mps 687 mmHg 79%
    09:00 +19°C° 0 mm 4 mps 687 mmHg 78%
    10:00 +20°C° 0 mm 4 mps 687 mmHg 78%
    11:00 +21°C° 0 mm 4 mps 687 mmHg 78%
    12:00 +22°C° 0 mm 4 mps 687 mmHg 77%
    13:00 +23°C° 0 mm 4 mps 687 mmHg 77%
    14:00 +23°C° 0 mm 4 mps 687 mmHg 78%
    15:00 +25°C° 0 mm 3 mps 687 mmHg 78%
    16:00 +25°C° 0 mm 3 mps 687 mmHg 79%
    17:00 +24°C° 0 mm 2 mps 686 mmHg 82%
    18:00 +23°C° 0 mm 2 mps 686 mmHg 85%
    19:00 +22°C° 0 mm 1 mps 685 mmHg 88%
    20:00 +21°C° 0 mm 1 mps 685 mmHg 88%
    21:00 +20°C° 0 mm 1 mps 685 mmHg 88%
    22:00 +19°C° 0 mm 1 mps 685 mmHg 88%
    23:00 +18°C° 0 mm 1 mps 685 mmHg 88%

    Tomorrow, 23 July, Tuesday

    Time Temperature Precipitation Wind Pressure Humidity
    00:00 +18°C° 0 mm 1 mps 685 mmHg 88%
    01:00 +16°C° 0 mm 1 mps 684 mmHg 88%
    02:00 +16°C° 0 mm 1 mps 684 mmHg 88%
    03:00 +14°C° 0 mm 0 mps 684 mmHg 88%
    04:00 +14°C° 0 mm 0 mps 684 mmHg 88%
    05:00 +15°C° 0 mm 0 mps 684 mmHg 86%
    06:00 +17°C° 0 mm 0 mps 684 mmHg 84%
    07:00 +19°C° 0 mm 0 mps 685 mmHg 82%
    08:00 +20°C° 0 mm 0 mps 685 mmHg 79%
    09:00 +24°C° 0 mm 1 mps 685 mmHg 76%
    10:00 +25°C° 0 mm 1 mps 685 mmHg 74%
    11:00 +26°C° 0 mm 1 mps 685 mmHg 73%
    12:00 +26°C° 0 mm 2 mps 684 mmHg 73%
    13:00 +27°C° 0 mm 2 mps 684 mmHg 72%
    14:00 +27°C° 0 mm 2 mps 684 mmHg 73%
    15:00 +27°C° 0 mm 2 mps 683 mmHg 74%
    16:00 +28°C° 0 mm 2 mps 682 mmHg 75%
    17:00 +26°C° 0.1 mm 2 mps 682 mmHg 78%
    18:00 +25°C° 0.1 mm 1 mps 681 mmHg 81%
    19:00 +24°C° 0.1 mm 1 mps 681 mmHg 84%
    20:00 +23°C° 0 mm 1 mps 680 mmHg 85%
    21:00 +21°C° 0 mm 1 mps 680 mmHg 86%
    22:00 +20°C° 0 mm 1 mps 679 mmHg 87%
    23:00 +19°C° 0 mm 1 mps 679 mmHg 87%

    Day after tomorrow, 24 July, Wednesday

    Time Temperature Precipitation Wind Pressure Humidity
    00:00 +19°C° 0 mm 1 mps 678 mmHg 86%
    01:00 +18°C° 0 mm 1 mps 678 mmHg 86%
    02:00 +18°C° 0 mm 1 mps 677 mmHg 87%
    03:00 +16°C° 0 mm 2 mps 677 mmHg 88%
    04:00 +16°C° 0 mm 2 mps 676 mmHg 89%
    05:00 +17°C° 0 mm 3 mps 676 mmHg 90%
    06:00 +18°C° 0 mm 4 mps 676 mmHg 91%
    07:00 +17°C° 0 mm 5 mps 677 mmHg 92%
    08:00 +19°C° 0 mm 5 mps 677 mmHg 89%
    09:00 +20°C° 0 mm 6 mps 677 mmHg 86%
    10:00 +20°C° 0 mm 6 mps 677 mmHg 83%
    11:00 +18°C° 1.3 mm 7 mps 677 mmHg 85%
    12:00 +17°C° 1.3 mm 8 mps 677 mmHg 86%
    13:00 +16°C° 1.3 mm 10 mps 677 mmHg 87%
    14:00 +16°C° 0.1 mm 9 mps 678 mmHg 84%
    15:00 +16°C° 0.1 mm 8 mps 678 mmHg 82%
    16:00 +16°C° 0.1 mm 8 mps 679 mmHg 79%
    17:00 +15°C° 0 mm 7 mps 679 mmHg 79%
    18:00 +15°C° 0 mm 5 mps 679 mmHg 80%
    19:00 +14°C° 0 mm 4 mps 679 mmHg 80%
    20:00 +14°C° 0 mm 4 mps 679 mmHg 78%
    21:00 +13°C° 0 mm 3 mps 679 mmHg 77%
    22:00 +13°C° 0 mm 3 mps 679 mmHg 75%
    23:00 +13°C° 0 mm 4 mps 680 mmHg 67%

    25 July, Thursday

    Time Temperature Precipitation Wind Pressure Humidity
    00:00 +13°C° 0 mm 4 mps 680 mmHg 59%
    01:00 +13°C° 0 mm 5 mps 680 mmHg 50%
    02:00 +12°C° 0 mm 4 mps 680 mmHg 58%
    03:00 +12°C° 0 mm 4 mps 680 mmHg 66%
    04:00 +11°C° 0 mm 4 mps 679 mmHg 74%
    05:00 +12°C° 0 mm 4 mps 680 mmHg 74%
    06:00 +13°C° 0 mm 4 mps 680 mmHg 75%
    07:00 +15°C° 0 mm 4 mps 681 mmHg 76%
    08:00 +16°C° 0 mm 5 mps 681 mmHg 71%
    09:00 +19°C° 0 mm 5 mps 681 mmHg 67%
    10:00 +20°C° 0 mm 6 mps 682 mmHg 63%
    11:00 +21°C° 0 mm 6 mps 682 mmHg 63%
    12:00 +22°C° 0 mm 6 mps 682 mmHg 62%
    13:00 +22°C° 0 mm 6 mps 682 mmHg 61%
    14:00 +23°C° 0 mm 5 mps 682 mmHg 64%
    15:00 +23°C° 0 mm 4 mps 682 mmHg 67%
    16:00 +24°C° 0 mm 3 mps 682 mmHg 69%
    17:00 +21°C° 0 mm 2 mps 682 mmHg 72%
    18:00 +21°C° 0 mm 1 mps 682 mmHg 74%
    19:00 +19°C° 0 mm 1 mps 682 mmHg 76%
    20:00 +18°C° 0 mm 1 mps 682 mmHg 76%
    21:00 +16°C° 0 mm 1 mps 682 mmHg 76%
    22:00 +15°C° 0 mm 1 mps 682 mmHg 77%
    23:00 +15°C° 0 mm 1 mps 682 mmHg 78%

    26 July, Friday

    Time Temperature Precipitation Wind Pressure Humidity
    00:00 +14°C° 0 mm 2 mps 682 mmHg 79%
    01:00 +14°C° 0 mm 2 mps 682 mmHg 80%
    02:00 +14°C° 0 mm 2 mps 682 mmHg 82%
    03:00 +13°C° 0 mm 2 mps 682 mmHg 83%
    04:00 +13°C° 0 mm 2 mps 682 mmHg 85%
    05:00 +13°C° 0 mm 3 mps 682 mmHg 83%
    06:00 +16°C° 0 mm 3 mps 682 mmHg 80%
    07:00 +18°C° 0 mm 4 mps 682 mmHg 78%
    08:00 +19°C° 0 mm 4 mps 682 mmHg 76%
    09:00 +20°C° 0 mm 4 mps 682 mmHg 74%
    10:00 +21°C° 0 mm 5 mps 682 mmHg 72%
    11:00 +22°C° 0 mm 4 mps 681 mmHg 71%
    12:00 +23°C° 0 mm 4 mps 681 mmHg 71%
    13:00 +25°C° 0 mm 3 mps 681 mmHg 70%
    14:00 +25°C° 0 mm 3 mps 680 mmHg 71%
    15:00 +25°C° 0 mm 3 mps 680 mmHg 72%
    16:00 +26°C° 0 mm 3 mps 679 mmHg 73%
    17:00 +24°C° 0 mm 3 mps 679 mmHg 76%
    18:00 +21°C° 0 mm 3 mps 678 mmHg 80%
    19:00 +20°C° 0 mm 3 mps 677 mmHg 83%
    20:00 +19°C° 0 mm 3 mps 677 mmHg 80%
    21:00 +18°C° 0 mm 3 mps 677 mmHg 77%
    22:00 +17°C° 0 mm 3 mps 677 mmHg 74%
    23:00 +15°C° 0 mm 4 mps 677 mmHg 73%

    27 July, Saturday

    Time Temperature Precipitation Wind Pressure Humidity
    00:00 +14°C° 0 mm 4 mps 677 mmHg 71%
    01:00 +13°C° 0 mm 5 mps 677 mmHg 70%
    02:00 +13°C° 0 mm 5 mps 677 mmHg 77%
    03:00 +12°C° 0 mm 5 mps 678 mmHg 84%
    04:00 +12°C° 0 mm 5 mps 678 mmHg 91%
    05:00 +13°C° 0 mm 5 mps 679 mmHg 87%
    06:00 +14°C° 0 mm 5 mps 679 mmHg 83%
    07:00 +15°C° 0 mm 6 mps 680 mmHg 79%
    08:00 +16°C° 0 mm 5 mps 680 mmHg 74%
    09:00 +18°C° 0 mm 4 mps 681 mmHg 70%
    10:00 +20°C° 0 mm 3 mps 681 mmHg 65%
    11:00 +20°C° 0 mm 3 mps 681 mmHg 63%
    12:00 +21°C° 0 mm 3 mps 682 mmHg 61%
    13:00 +23°C° 0 mm 2 mps 682 mmHg 59%
    14:00 +23°C° 0 mm 2 mps 682 mmHg 60%
    15:00 +23°C° 0 mm 2 mps 682 mmHg 61%
    16:00 +23°C° 0 mm 2 mps 682 mmHg 63%
    17:00 +21°C° 0.1 mm 2 mps 682 mmHg 68%
    18:00 +19°C° 0.1 mm 2 mps 682 mmHg 73%
    19:00 +17°C° 0.1 mm 2 mps 682 mmHg 78%
    20:00 +16°C° 0.1 mm 2 mps 682 mmHg 80%
    21:00 +15°C° 0.1 mm 2 mps 683 mmHg 81%
    22:00 +14°C° 0.1 mm 2 mps 683 mmHg 82%
    23:00 +14°C° 0 mm 2 mps 683 mmHg 81%
    Show more